This is the latest recevied weather packets stored in our database for station/object YO2MAS-13. If no packets are shown the sender has not sent any weather packets the latest 10 day(s).
| Time | Temp. | Humidity | Pressure | Rain* | Wind** | Luminosity | Snow |
|---|---|---|---|---|---|---|---|
| 1777585523 | 8.89° C | 59% | 1029.3 hPa | - | - | - | - |
| 1777584625 | 8.89° C | 57% | 1029.1 hPa | - | - | - | - |
| 1777583723 | 9.44° C | 54% | 1029 hPa | - | - | - | - |
| 1777582823 | 10° C | 50% | 1028.9 hPa | - | - | - | - |
| 1777581923 | 11.67° C | 50% | 1028.7 hPa | - | - | - | - |
| 1777581263 | 11.67° C | 54% | 1028.6 hPa | - | - | - | - |
| 1777581023 | 11.67° C | 54% | 1028.6 hPa | - | - | - | - |
| 1777580123 | 11.67° C | 51% | 1028.6 hPa | - | - | - | - |
| 1777579450 | 11.11° C | 52% | 1028.5 hPa | - | - | - | - |
| 1777579223 | 11.11° C | 52% | 1028.5 hPa | - | - | - | - |
| 1777578323 | 11.67° C | 50% | 1028.5 hPa | - | - | - | - |
| 1777577423 | 11.67° C | 49% | 1028.4 hPa | - | - | - | - |
| 1777576523 | 11.67° C | 48% | 1028.3 hPa | - | - | - | - |
| 1777575623 | 12.22° C | 49% | 1028.1 hPa | - | - | - | - |
| 1777574723 | 12.22° C | 48% | 1028 hPa | - | - | - | - |
| 1777573823 | 13.33° C | 50% | 1027.7 hPa | - | - | - | - |
| 1777572923 | 14.44° C | 48% | 1027.3 hPa | - | - | - | - |
| 1777572023 | 15° C | 53% | 1027.1 hPa | - | - | - | - |
| 1777571123 | 16.11° C | 55% | 1027 hPa | - | - | - | - |
| 1777570225 | 15.56° C | 45% | 1026.8 hPa | - | - | - | - |
| 1777569323 | 15° C | 36% | 1026.8 hPa | - | - | - | - |
| 1777568423 | 15.56° C | 34% | 1026.6 hPa | - | - | - | - |
| 1777567523 | 16.11° C | 33% | 1026.4 hPa | - | - | - | - |
| 1777566623 | 16.11° C | 32% | 1026.3 hPa | - | - | - | - |
| 1777565723 | 17.22° C | 31% | 1026 hPa | - | - | - | - |
* Rain since midnight (hover to see other rain measurements)
** Current wind speed in m/s (hover to see current wind gust speed)